Orange, MA

1:02 AM EDT on August 30, 2016 (GMT -0400)
Orange Municipal

Weather History for KORE - March, 2014

Change the Weather History Date:

Monday, March 3, 2014

  Actual Average Record
Temperature  
Mean Temperature 10 °F -  
Max Temperature 19 °F 36 °F 57 °F (2002)
Min Temperature -2 °F 18 °F -4 °F (2009)
Degree Days  
Heating Degree Days 55    
Moisture  
Dew Point -2 °F    
Average Humidity 52    
Maximum Humidity 79    
Minimum Humidity 32    
Precipitation  
Precipitation 0.00 in - - ()
Sea Level Pressure  
Sea Level Pressure 30.16 in    
Wind  
Wind Speed 10 mph (NW)    
Max Wind Speed 15 mph    
Max Gust Speed 21 mph    
Visibility 10 miles    
Events      
Averages and records for this station are not official NWS values.
T = Trace of Precipitation, MM = Missing Value Source: NWS Daily Summary

Daily Weather History Graph

Daily Weather History Graph

Search for Another Location

Airport or City:

Trip Planner

Search our weather history database for the weather conditions in past years. The results will help you decide how hot, cold, wet, or windy it might be!

Date:

Astronomy

Mar. 03, 2014 Rise Set
Actual Time 6:21 AM EST 5:41 PM EST
Civil Twilight 5:53 AM EST 6:09 PM EST
Nautical Twilight 5:20 AM EST 6:42 PM EST
Astronomical Twilight 4:48 AM EST 7:14 PM EST
Moon 7:24 AM EST (3/3) 8:45 PM EST (3/3)
Length of Visible Light 12h 16m
Length of Day
11h 19m
Waxing Crescent, 8% of the Moon is Illuminated
Mar 3
Waxing Crescent
Mar 8
First Quarter
Mar 16
Full
Mar 23
Last Quarter
Mar 30
New

Hourly Weather History & Observations

Time (EST) Temp. Windchill Dew Point Humidity Pressure Visibility Wind Dir Wind Speed Gust Speed Precip Events Conditions
12:52 AM 19.0 °F 7.5 °F 5.0 °F 54% 30.04 in 10.0 mi WNW 10.4 mph - N/A   Partly Cloudy
1:52 AM 18.0 °F 4.8 °F 3.9 °F 54% 30.04 in 10.0 mi WNW 12.7 mph - N/A   Mostly Cloudy
2:52 AM 17.1 °F 6.6 °F 3.9 °F 56% 30.04 in 10.0 mi WNW 8.1 mph - N/A   Mostly Cloudy
3:52 AM 16.0 °F 2.9 °F 5.0 °F 62% 30.05 in 10.0 mi NW 11.5 mph - N/A   Scattered Clouds
4:52 AM 15.1 °F 0.5 °F 3.0 °F 59% 30.08 in 10.0 mi NNW 13.8 mph 20.7 mph N/A   Clear
5:52 AM 14.0 °F -0.2 °F -0.0 °F 54% 30.10 in 10.0 mi NNW 12.7 mph - N/A   Clear
6:52 AM 14.0 °F -1.4 °F -0.9 °F 52% 30.12 in 10.0 mi NNW 15.0 mph - N/A   Clear
7:52 AM 14.0 °F -1.4 °F -0.0 °F 54% 30.13 in 10.0 mi NW 15.0 mph - N/A   Clear
8:52 AM 15.1 °F 2.5 °F -2.0 °F 47% 30.13 in 10.0 mi NW 10.4 mph - N/A   Clear
9:52 AM 16.0 °F 2.9 °F -0.9 °F 47% 30.14 in 10.0 mi NW 11.5 mph - N/A   Clear
10:52 AM 17.1 °F 6.6 °F -2.0 °F 43% 30.15 in 10.0 mi NNW 8.1 mph - N/A   Clear
11:52 AM 17.1 °F 7.6 °F -2.0 °F 43% 30.15 in 10.0 mi Variable 6.9 mph - N/A   Clear
12:52 PM 18.0 °F 6.1 °F -2.0 °F 41% 30.14 in 10.0 mi WNW 10.4 mph - N/A   Clear
1:52 PM 18.0 °F 6.1 °F -2.0 °F 41% 30.14 in 10.0 mi NW 10.4 mph - N/A   Clear
2:52 PM 19.0 °F 6.1 °F -2.9 °F 38% 30.15 in 10.0 mi NW 12.7 mph 17.3 mph N/A   Clear
3:52 PM 19.0 °F 7.5 °F -2.9 °F 38% 30.17 in 10.0 mi NW 10.4 mph - N/A   Clear
4:52 PM 19.0 °F 9.0 °F -2.9 °F 38% 30.19 in 10.0 mi NW 8.1 mph - N/A   Clear
5:52 PM 16.0 °F 6.3 °F -9.0 °F 32% 30.22 in 10.0 mi North 6.9 mph - N/A   Clear
6:52 PM 12.0 °F - -7.1 °F 42% 30.25 in 10.0 mi Calm Calm - N/A   Clear
7:52 PM 7.0 °F - -4.0 °F 61% 30.27 in 10.0 mi Calm Calm - N/A   Clear
8:52 PM 3.9 °F - -5.1 °F 66% 30.29 in 10.0 mi Calm Calm - N/A   Clear
9:52 PM 3.0 °F - -4.0 °F 73% 30.30 in 10.0 mi Calm Calm - N/A   Clear
10:52 PM 1.0 °F - -6.0 °F 72% 30.31 in 10.0 mi Calm Calm - N/A   Clear
11:52 PM -2.0 °F - -7.1 °F 79% 30.31 in 10.0 mi Calm Calm - N/A   Clear